This is the latest recevied weather packets stored in our database for station/object XE2AD-5. If no packets are shown the sender has not sent any weather packets the latest 10 day(s).
| Time | Temp. | Humidity | Pressure | Rain* | Wind** | Luminosity | Snow |
|---|---|---|---|---|---|---|---|
| 1777996253 | 26.11° C | 22% | 809 hPa | - | - | - | - |
| 1777992952 | 26.11° C | 23% | 809.1 hPa | - | - | - | - |
| 1777989652 | 26.11° C | 23% | 808.8 hPa | - | - | - | - |
| 1777986352 | 26.11° C | 23% | 808.5 hPa | - | - | - | - |
| 1777983052 | 26.67° C | 22% | 807.9 hPa | - | - | - | - |
| 1777979752 | 26.67° C | 22% | 807.2 hPa | - | - | - | - |
| 1777976451 | 27.22° C | 20% | 807 hPa | - | - | - | - |
| 1777973151 | 27.78° C | 20% | 806.8 hPa | - | - | - | - |
| 1777969851 | 27.78° C | 20% | 806.8 hPa | - | - | - | - |
| 1777966551 | 28.33° C | 20% | 806.9 hPa | - | - | - | - |
| 1777963251 | 28.33° C | 20% | 807 hPa | - | - | - | - |
| 1777959951 | 28.89° C | 18% | 807.2 hPa | - | - | - | - |
| 1777956650 | 28.89° C | 17% | 807.3 hPa | - | - | - | - |
| 1777953350 | 28.89° C | 16% | 806.8 hPa | - | - | - | - |
| 1777950048 | 29.44° C | 16% | 806.1 hPa | - | - | - | - |
| 1777946748 | 29.44° C | 18% | 805.4 hPa | - | - | - | - |
| 1777943448 | 28.89° C | 17% | 804.8 hPa | - | - | - | - |
| 1777940148 | 28.89° C | 19% | 804.7 hPa | - | - | - | - |
| 1777936848 | 28.89° C | 18% | 804.8 hPa | - | - | - | - |
| 1777933547 | 28.33° C | 18% | 805.1 hPa | - | - | - | - |
| 1777930244 | 27.78° C | 19% | 805.5 hPa | - | - | - | - |
| 1777926944 | 27.22° C | 18% | 806.3 hPa | - | - | - | - |
| 1777923644 | 27.22° C | 18% | 806.9 hPa | - | - | - | - |
| 1777920344 | 26.11° C | 21% | 807.6 hPa | - | - | - | - |
| 1777917044 | 25.56° C | 23% | 808.6 hPa | - | - | - | - |
* Rain since midnight (hover to see other rain measurements)
** Current wind speed in m/s (hover to see current wind gust speed)